[[{"header":{"parameterUnit":"m.s-1","parameterCategory":1,"la1":30.2991,"la2":30.254,"lo1":-89.0895,"lo2":-89.0444,"dy":0.0017,"dx":0.0017,"nx":28,"ny":28,"refTime":"2023-09-18T09:00:00:Z","depth":0,"parameterNumber":2,"parameterNumberName":"U-component_of_WINDS"},"data":[0,0,0,0,0,0,0,0,0,0,0,0,0,0,0,0,0,0,0,0,0,0,0,0,0,0,0,0,0,0,0,0,0,0,0,0,0,0,0,0,0,0,0,0,0,0,0,0,0,0,0,0,0,0,0,0,0,0,-2.2598,-2.2599,0,-2.2706,-2.2708,-2.2709,-2.2673,-2.267,-2.2668,-2.2666,-2.2775,-2.278,-2.2785,0,0,0,0,0,0,0,0,0,0,0,0,0,-2.2356,-2.2361,-2.2598,-2.2599,-2.26,-2.2706,-2.2708,-2.2709,-2.2673,-2.267,-2.2667,-2.2665,-2.2773,-2.2779,-2.2785,0,0,0,0,0,0,0,0,0,0,0,0,0,-2.2462,-2.2362,-2.2597,-2.2595,-2.2596,-2.2706,-2.2708,-2.271,-2.2674,-2.267,-2.2667,-2.2663,-2.2771,-2.2779,-2.2786,-2.2904,0,0,-2.281,-2.2813,0,0,0,0,0,0,0,0,-2.2456,-2.2471,-2.2594,-2.2595,-2.2597,-2.2672,-2.2663,-2.2775,-2.2675,-2.2644,-2.2666,-2.2662,-2.2743,-2.2753,-2.2781,-2.2909,-2.2914,-2.281,-2.2815,-2.2818,-2.282,0,0,0,0,0,0,0,-2.2449,-2.2466,-2.2641,-2.2596,-2.2597,-2.2588,-2.2599,-2.2684,-2.2712,-2.2646,-2.2644,-2.2658,-2.2743,-2.2774,-2.2784,-2.2916,-2.281,-2.2817,-2.2822,-2.2824,-2.3146,-2.3149,0,0,0,0,0,0,-2.2441,-2.2461,-2.2637,-2.2644,-2.2516,-2.2595,-2.2608,-2.2652,-2.2711,-2.2717,-2.2661,-2.2656,-2.2763,-2.2775,-2.2787,-2.293,-2.2818,-2.2825,-2.283,-2.3142,-2.3147,-2.3151,0,0,0,0,0,0,-2.2436,-2.2457,-2.2633,-2.2552,-2.2573,-2.2603,-2.2653,-2.2656,-2.2686,-2.2722,-2.2726,-2.2687,-2.276,-2.2776,-2.2876,-2.2933,-2.2829,-2.2836,-2.3137,-2.3143,-2.3149,-2.3216,0,0,0,0,0,0,-2.2429,-2.2456,-2.2502,-2.2553,-2.2578,-2.272,-2.2656,-2.266,-2.27,-2.2694,-2.2748,-2.2753,-2.2759,-2.2864,-2.2883,-2.2942,-2.2842,-2.3132,-2.314,-2.3147,-2.3209,-2.3223,-2.3236,0,0,0,0,0,-2.2421,-2.2516,-2.2504,-2.2526,-2.2636,-2.2724,-2.2738,-2.2743,-2.2705,-2.2751,-2.2773,-2.2751,-2.2923,-2.2875,-2.2896,-2.2957,-2.3129,-2.3138,-2.3146,-2.3203,-2.322,-2.3236,0,0,0,0,0,0,-2.247,-2.2522,-2.251,-2.2625,-2.267,-2.2717,-2.2776,-2.2762,-2.2819,-2.2811,-2.2814,-2.2827,-2.2929,-2.2953,-2.2897,-2.3075,-2.302,-2.3034,-2.3056,-2.3073,-2.3086,-2.3079,-2.2848,0,0,0,0,0,-2.2494,-2.2562,-2.2603,-2.27,-2.2724,-2.2746,-2.2784,-2.2785,-2.2831,-2.285,-2.288,-2.2926,-2.299,-2.3033,-2.3094,-2.3211,-2.3222,-2.3264,-2.3278,-2.3289,-2.3301,-2.3365,-2.3384,-2.318,-2.318,-2.318,0,0,-2.2544,-2.2581,-2.2624,-2.2711,-2.2746,-2.2816,-2.2762,-2.2838,-2.289,-2.2861,-2.2958,-2.2981,-2.3032,-2.3141,-2.319,-2.3164,-2.3359,-2.33,-2.3308,-2.3315,-2.3376,-2.3395,-2.3412,-2.3186,-2.3185,-2.3184,0,0,-2.2672,-2.2707,-2.2791,-2.2828,-2.2882,-2.2896,-2.2917,-2.2966,-2.2981,-2.3078,-2.3058,-2.3119,-2.3229,-2.3267,-2.33,-2.3442,-2.3424,-2.3461,-2.3533,-2.3595,-2.3611,-2.3625,-2.3676,-2.3695,-2.3473,-2.3473,-2.3473,0,-2.2728,-2.2833,-2.2836,-2.2915,-2.2953,-2.2931,-2.3017,-2.3052,-2.3123,-2.315,-2.3119,-2.3258,-2.3291,-2.3409,-2.3443,-2.3471,-2.3494,-2.3456,-2.3609,-2.3623,-2.3636,-2.3685,-2.3704,-2.3477,-2.3477,-2.3476,-2.3476,0,-2.2899,-2.2972,-2.3033,-2.3104,-2.3149,-2.3231,-2.3246,-2.3291,-2.3287,-2.3304,-2.3402,-2.3441,-2.351,-2.3537,-2.3534,-2.3654,-2.3636,-2.3607,-2.3553,-2.366,-2.3706,-2.3725,-2.3483,-2.3482,-2.348,-2.3479,0,0,-2.3061,-2.3133,-2.3155,-2.3187,-2.3245,-2.3301,-2.3381,-2.3449,-2.3488,-2.3537,-2.3605,-2.3698,-2.3672,-2.371,-2.371,-2.3765,-2.3875,-2.3729,-2.373,-2.3756,-2.4011,-2.4033,-2.4055,-2.3863,-2.3866,-2.3869,-2.4007,0,-2.3194,-2.3336,-2.3342,-2.347,-2.3538,-2.3518,-2.3587,-2.363,-2.3648,-2.3707,-2.3725,-2.3793,-2.3752,-2.3775,-2.3828,-2.385,-2.3926,-2.384,-2.3925,-2.3928,-2.3914,-2.4079,-2.4102,-2.4231,-2.4025,-2.4028,-2.403,0,-2.3369,-2.3425,-2.3561,-2.361,-2.3638,-2.3701,-2.3764,-2.382,-2.3868,-2.3877,-2.3919,-2.3911,-2.3992,-2.3934,-2.4045,-2.3987,-2.4021,-2.4037,-2.4042,-2.4051,-2.3986,-2.4093,-2.4271,-2.4291,-2.4058,-2.4056,-2.4054,0,-2.3475,-2.3584,-2.368,-2.3707,-2.3766,-2.3811,-2.3837,-2.3881,-2.3922,-2.3976,-2.4002,-2.4065,-2.41,-2.4148,-2.4157,-2.4113,-2.4268,-2.4211,-2.4278,-2.4278,-2.4312,-2.431,-2.45,-2.4333,-2.4333,-2.4332,-2.4332,0,-2.3624,-2.3708,-2.3728,-2.3787,-2.3881,-2.3886,-2.3978,-2.4,-2.404,-2.4102,-2.4088,-2.4146,-2.4154,-2.4215,-2.4222,-2.4313,-2.4328,-2.4337,-2.4339,-2.434,-2.4339,-2.4363,-2.4355,-2.4337,-2.4336,-2.4335,-2.4334,0,-2.3758,-2.3775,-2.3879,-2.3926,-2.394,-2.4007,-2.4047,-2.4103,-2.4118,-2.4198,-2.4216,-2.4241,-2.4312,-2.4325,-2.4407,-2.4412,-2.4521,-2.4513,-2.4506,-2.4505,-2.4572,-2.4566,-2.4785,-2.4814,-2.4627,-2.4629,-2.463,0,-2.3853,-2.3917,-2.3972,-2.4013,-2.4042,-2.4109,-2.415,-2.4157,-2.4201,-2.426,-2.4309,-2.4377,-2.4433,-2.4546,-2.4571,-2.4634,-2.4627,-2.47,-2.4637,-2.4636,-2.4629,-2.4626,-2.4632,-2.4712,-2.4714,-2.4716,-2.4717,0,-2.4019,-2.4024,-2.4085,-2.415,-2.42,-2.425,-2.4298,-2.4332,-2.4345,-2.4395,-2.4467,-2.451,-2.4595,-2.4664,-2.4727,-2.4752,-2.4737,-2.4737,-2.4756,-2.4758,-2.4752,-2.4757,-2.454,-2.4732,-2.473,-2.4729,-2.4729,-2.4728,-2.4137,-2.4193,-2.4241,-2.4309,-2.4346,-2.4391,-2.4447,-2.447,-2.453,-2.4601,-2.46,-2.468,-2.4725,-2.4808,-2.4838,-2.4899,-2.4876,-2.4903,-2.491,-2.4917,-2.4924,-2.4741,-2.491,-2.491,-2.4909,-2.4909,-2.4909,0,-2.4303,-2.4332,-2.4395,-2.4463,-2.4517,-2.4498,-2.455,-2.4596,-2.4667,-2.4711,-2.4766,-2.4849,-2.4915,-2.4945,-2.501,-2.5053,-2.5048,-2.507,-2.5067,-2.5074,-2.4941,-2.4918,-2.5073,-2.5073,-2.5073,-2.5073,-2.5073,-2.5073,-2.4396,-2.4491,-2.4502,-2.4614,-2.4643,-2.4721,-2.4752,-2.4794,-2.4829,-2.4923,-2.4978,-2.4997,-2.5036,-2.5103,-2.5163,-2.517,-2.5195,-2.5221,-2.5224,-2.51,-2.5083,-2.5067,-2.5046,-2.5226,-2.5226,-2.5352,-2.5353,-2.5354]},{"header":{"parameterUnit":"m.s-1","parameterCategory":1,"la1":30.2991,"la2":30.254,"lo1":-89.0895,"lo2":-89.0444,"dy":0.0017,"dx":0.0017,"nx":28,"ny":28,"refTime":"2023-09-18T09:00:00:Z","depth":0,"parameterNumber":3,"parameterNumberName":"V-component_of_WINDS"},"data":[0,0,0,0,0,0,0,0,0,0,0,0,0,0,0,0,0,0,0,0,0,0,0,0,0,0,0,0,0,0,0,0,0,0,0,0,0,0,0,0,0,0,0,0,0,0,0,0,0,0,0,0,0,0,0,0,0,0,-3.8468,-3.8469,0,-3.8597,-3.8598,-3.86,-3.8557,-3.8554,-3.8551,-3.8549,-3.8681,-3.8687,-3.8693,0,0,0,0,0,0,0,0,0,0,0,0,0,-3.8183,-3.8188,-3.8467,-3.8469,-3.8471,-3.8597,-3.8598,-3.86,-3.8557,-3.8554,-3.8551,-3.8547,-3.8679,-3.8686,-3.8693,0,0,0,0,0,0,0,0,0,0,0,0,0,-3.8309,-3.819,-3.8467,-3.8464,-3.8466,-3.8596,-3.8599,-3.8601,-3.8558,-3.8554,-3.855,-3.8546,-3.8676,-3.8685,-3.8694,-3.8835,0,0,-3.8722,-3.8726,0,0,0,0,0,0,0,0,-3.8302,-3.8319,-3.8463,-3.8465,-3.8466,-3.8556,-3.8546,-3.8679,-3.8559,-3.8523,-3.8549,-3.8544,-3.8643,-3.8654,-3.8688,-3.8841,-3.8847,-3.8723,-3.8729,-3.8733,-3.8735,0,0,0,0,0,0,0,-3.8293,-3.8313,-3.8519,-3.8465,-3.8467,-3.8457,-3.847,-3.8571,-3.8605,-3.8526,-3.8523,-3.8539,-3.8643,-3.8679,-3.8691,-3.8849,-3.8723,-3.8731,-3.8737,-3.874,-3.9125,-3.913,0,0,0,0,0,0,-3.8283,-3.8306,-3.8514,-3.8522,-3.8372,-3.8465,-3.848,-3.8532,-3.8604,-3.8611,-3.8542,-3.8536,-3.8665,-3.868,-3.8695,-3.8865,-3.8733,-3.8741,-3.8746,-3.9121,-3.9126,-3.9132,0,0,0,0,0,0,-3.8278,-3.8302,-3.8509,-3.8414,-3.8439,-3.8475,-3.8533,-3.8537,-3.8573,-3.8616,-3.8622,-3.8574,-3.8663,-3.8682,-3.8801,-3.8869,-3.8745,-3.8754,-3.9115,-3.9123,-3.9129,-3.9207,0,0,0,0,0,0,-3.827,-3.8301,-3.8354,-3.8415,-3.8445,-3.8613,-3.8537,-3.8542,-3.8589,-3.8582,-3.8647,-3.8653,-3.8661,-3.8787,-3.881,-3.888,-3.8761,-3.9109,-3.9118,-3.9127,-3.9198,-3.9216,-3.9231,0,0,0,0,0,-3.826,-3.8371,-3.8357,-3.8383,-3.8513,-3.8617,-3.8634,-3.864,-3.8595,-3.8649,-3.8677,-3.8651,-3.8858,-3.88,-3.8825,-3.8899,-3.9105,-3.9116,-3.9126,-3.9191,-3.9212,-3.923,0,0,0,0,0,0,-3.8317,-3.8379,-3.8365,-3.8499,-3.8553,-3.861,-3.8679,-3.8663,-3.8731,-3.8722,-3.8726,-3.8741,-3.8864,-3.8893,-3.8827,-3.9039,-3.8975,-3.8991,-3.9016,-3.9036,-3.9052,-3.9042,-3.8769,0,0,0,0,0,-3.8345,-3.8425,-3.8475,-3.8588,-3.8616,-3.8643,-3.8689,-3.8689,-3.8745,-3.8768,-3.8804,-3.886,-3.8937,-3.8988,-3.9062,-3.9202,-3.9216,-3.9266,-3.9282,-3.9295,-3.9309,-3.9386,-3.9408,-3.9166,-3.9166,-3.9166,0,0,-3.8404,-3.8448,-3.8498,-3.8601,-3.8643,-3.8726,-3.8663,-3.8752,-3.8814,-3.8782,-3.8896,-3.8925,-3.8987,-3.9118,-3.9177,-3.9146,-3.9378,-3.9308,-3.9318,-3.9325,-3.9399,-3.9422,-3.9442,-3.9174,-3.9172,-3.9171,0,0,-3.8554,-3.8595,-3.8695,-3.8739,-3.8803,-3.8821,-3.8845,-3.8904,-3.8922,-3.9037,-3.9015,-3.9088,-3.9221,-3.9267,-3.9307,-3.9476,-3.9455,-3.95,-3.9584,-3.9659,-3.9678,-3.9695,-3.9756,-3.9777,-3.9513,-3.9514,-3.9514,0,-3.8619,-3.8743,-3.8748,-3.884,-3.8887,-3.8862,-3.8963,-3.9005,-3.909,-3.9123,-3.9087,-3.9254,-3.9294,-3.9435,-3.9477,-3.951,-3.9538,-3.9492,-3.9675,-3.9692,-3.9708,-3.9766,-3.9788,-3.9519,-3.9518,-3.9517,-3.9517,0,-3.882,-3.8907,-3.8979,-3.9063,-3.9117,-3.9214,-3.9233,-3.9288,-3.9284,-3.9305,-3.9423,-3.947,-3.9553,-3.9587,-3.9583,-3.9728,-3.9707,-3.9673,-3.9608,-3.9736,-3.979,-3.9813,-3.9526,-3.9524,-3.9523,-3.9521,0,0,-3.9009,-3.9095,-3.9122,-3.916,-3.923,-3.9297,-3.9392,-3.9474,-3.9521,-3.9581,-3.9661,-3.9775,-3.9744,-3.9791,-3.9792,-3.9858,-3.9989,-3.9816,-3.9818,-3.9847,-4.0152,-4.0177,-4.0203,-3.9976,-3.998,-3.9983,-4.0147,0,-3.9165,-3.9333,-3.9341,-3.9493,-3.9573,-3.9552,-3.9635,-3.9687,-3.9709,-3.978,-3.9805,-3.9886,-3.9839,-3.9867,-3.9931,-3.996,-4.0051,-3.9948,-4.0051,-4.0054,-4.0036,-4.0231,-4.0258,-4.041,-4.0168,-4.0172,-4.0174,0,-3.9369,-3.9437,-3.9597,-3.9657,-3.9691,-3.9765,-3.9841,-3.991,-3.9968,-3.998,-4.0032,-4.0025,-4.0122,-4.0055,-4.019,-4.012,-4.0162,-4.0183,-4.0189,-4.0199,-4.0122,-4.0246,-4.0458,-4.0481,-4.0208,-4.0205,-4.0203,0,-3.9491,-3.9622,-3.9735,-3.9769,-3.9841,-3.9894,-3.9926,-3.9981,-4.003,-4.0097,-4.0128,-4.0205,-4.0247,-4.0307,-4.0321,-4.027,-4.0456,-4.0389,-4.0468,-4.0468,-4.0509,-4.0506,-4.073,-4.0536,-4.0535,-4.0535,-4.0535,0,-3.9665,-3.9764,-3.9791,-3.9861,-3.9972,-3.998,-4.009,-4.0118,-4.0168,-4.0243,-4.0228,-4.0299,-4.0312,-4.0386,-4.0397,-4.0507,-4.0526,-4.0539,-4.0541,-4.054,-4.0539,-4.0568,-4.0558,-4.0541,-4.054,-4.0539,-4.0538,0,-3.982,-3.9842,-3.9964,-4.0023,-4.004,-4.0119,-4.017,-4.0237,-4.0258,-4.0353,-4.0376,-4.0409,-4.0495,-4.0514,-4.0616,-4.0624,-4.0755,-4.0746,-4.0735,-4.0735,-4.0813,-4.0806,-4.1065,-4.1099,-4.0882,-4.0884,-4.0885,0,-3.9929,-4.0005,-4.0072,-4.0122,-4.0157,-4.0237,-4.0287,-4.0299,-4.0351,-4.0425,-4.0483,-4.0568,-4.0636,-4.0774,-4.0808,-4.0886,-4.0879,-4.0964,-4.0891,-4.0888,-4.0881,-4.0876,-4.0884,-4.0978,-4.0981,-4.0983,-4.0984,0,-4.012,-4.0128,-4.0201,-4.0279,-4.034,-4.0401,-4.046,-4.0501,-4.052,-4.058,-4.0669,-4.0722,-4.0826,-4.0911,-4.0989,-4.1023,-4.1007,-4.1007,-4.103,-4.103,-4.1021,-4.1028,-4.0774,-4.1001,-4.0999,-4.0998,-4.0997,-4.0997,-4.0256,-4.0323,-4.0381,-4.0464,-4.0509,-4.0565,-4.0631,-4.0661,-4.0734,-4.0821,-4.0823,-4.0919,-4.0977,-4.1081,-4.1119,-4.1195,-4.1168,-4.1201,-4.1209,-4.1217,-4.1225,-4.1009,-4.1209,-4.1209,-4.1208,-4.1208,-4.1208,0,-4.0447,-4.0484,-4.056,-4.0643,-4.0708,-4.0688,-4.0752,-4.0807,-4.0893,-4.0948,-4.1016,-4.1118,-4.1199,-4.1239,-4.1321,-4.1373,-4.1369,-4.1394,-4.1391,-4.1399,-4.1243,-4.1216,-4.1397,-4.1397,-4.1397,-4.1397,-4.1397,-4.1397,-4.0554,-4.0667,-4.0681,-4.0817,-4.0852,-4.0947,-4.0986,-4.1037,-4.1081,-4.1196,-4.1264,-4.129,-4.1339,-4.1424,-4.1498,-4.1508,-4.1539,-4.1569,-4.1575,-4.1429,-4.141,-4.1391,-4.1365,-4.1575,-4.1575,-4.1724,-4.1725,-4.1726]}]]